[[{"header":{"parameterUnit":"m.s-1","parameterCategory":1,"la1":30.2991,"la2":30.254,"lo1":-89.0895,"lo2":-89.0444,"dy":0.0017,"dx":0.0017,"nx":28,"ny":28,"refTime":"2024-07-01T09:00:00:Z","depth":0,"parameterNumber":2,"parameterNumberName":"U-component_of_WINDS"},"data":[0,0,0,0,0,0,0,0,0,0,0,0,0,0,0,0,0,0,0,0,0,0,0,0,0,0,0,0,0,0,0,0,0,0,0,0,0,0,0,0,0,0,0,0,0,0,0,0,0,0,0,0,0,0,0,0,0,0,0.6769,0.677,0,0.679,0.679,0.679,0.6758,0.6756,0.6755,0.6754,0.6777,0.6779,0.678,0,0,0,0,0,0,0,0,0,0,0,0,0,0.6705,0.6706,0.6769,0.677,0.677,0.679,0.679,0.679,0.6758,0.6756,0.6755,0.6754,0.6776,0.6778,0.678,0,0,0,0,0,0,0,0,0,0,0,0,0,0.673,0.6706,0.6769,0.6756,0.6755,0.679,0.679,0.679,0.6758,0.6756,0.6755,0.6753,0.6776,0.6778,0.6781,0.683,0,0,0.6788,0.6789,0,0,0,0,0,0,0,0,0.6728,0.6732,0.6758,0.6757,0.6756,0.6769,0.6776,0.6804,0.6758,0.6757,0.6754,0.6752,0.6776,0.6778,0.6786,0.6831,0.6832,0.6788,0.679,0.6791,0.6792,0,0,0,0,0,0,0,0.6727,0.6731,0.6777,0.6758,0.6757,0.675,0.6751,0.6781,0.6776,0.6757,0.6755,0.6757,0.6775,0.6784,0.6786,0.6832,0.6788,0.6791,0.6792,0.6793,0.6921,0.6923,0,0,0,0,0,0,0.6726,0.673,0.6777,0.6778,0.6738,0.6752,0.6754,0.6767,0.6775,0.6775,0.6759,0.6756,0.678,0.6783,0.6787,0.6846,0.6791,0.6793,0.6795,0.6919,0.6921,0.6923,0,0,0,0,0,0,0.6725,0.6731,0.6776,0.6753,0.6759,0.6755,0.677,0.6768,0.6776,0.6777,0.6776,0.6768,0.6779,0.6783,0.682,0.6847,0.6794,0.6797,0.6917,0.692,0.6922,0.6965,0,0,0,0,0,0,0.6723,0.673,0.6748,0.6754,0.676,0.6808,0.6771,0.677,0.6781,0.6777,0.6785,0.6785,0.6778,0.6816,0.6822,0.6849,0.6799,0.6914,0.6918,0.6921,0.6961,0.6969,0.6976,0,0,0,0,0,0.6721,0.676,0.6749,0.6755,0.6782,0.6809,0.6813,0.6803,0.6783,0.6802,0.6802,0.6785,0.6843,0.682,0.6827,0.6855,0.6913,0.6917,0.6921,0.6958,0.6968,0.6976,0,0,0,0,0,0,0.6758,0.676,0.6749,0.679,0.68,0.6804,0.6827,0.6813,0.6829,0.6825,0.6813,0.6816,0.6855,0.6858,0.6833,0.6904,0.6874,0.688,0.69,0.6909,0.6916,0.6915,0.6801,0,0,0,0,0,0.6771,0.6792,0.6793,0.683,0.6835,0.683,0.6842,0.6834,0.6843,0.6847,0.685,0.6861,0.6882,0.6895,0.6914,0.6962,0.6964,0.6984,0.6991,0.6997,0.7003,0.7029,0.7039,0.6937,0.6937,0.6937,0,0,0.6797,0.6801,0.6816,0.6837,0.6843,0.6867,0.6834,0.6859,0.6877,0.6851,0.6886,0.6889,0.69,0.6942,0.6961,0.6947,0.7031,0.7003,0.7007,0.701,0.7035,0.7044,0.7053,0.694,0.694,0.6939,0,0,0.6859,0.6863,0.6895,0.6902,0.6912,0.6909,0.6917,0.6923,0.6924,0.6958,0.694,0.6961,0.6997,0.7006,0.7015,0.7081,0.7067,0.7088,0.7126,0.7152,0.716,0.7167,0.7192,0.72,0.7093,0.7093,0.7093,0,0.6891,0.6924,0.6913,0.694,0.6951,0.6928,0.6961,0.6969,0.6985,0.6994,0.6977,0.7022,0.7027,0.7072,0.7089,0.7096,0.7106,0.7087,0.7159,0.7166,0.7173,0.7196,0.7206,0.7095,0.7095,0.7095,0.7095,0,0.6964,0.6988,0.7012,0.7029,0.7042,0.7072,0.7066,0.7081,0.7072,0.7071,0.7107,0.7114,0.7134,0.7144,0.7136,0.7188,0.7179,0.7161,0.7131,0.7185,0.7207,0.7216,0.7099,0.7098,0.7097,0.7097,0,0,0.7049,0.7059,0.7068,0.7076,0.7086,0.7104,0.7134,0.7154,0.7167,0.718,0.7205,0.7236,0.722,0.723,0.7223,0.7246,0.7299,0.7225,0.7225,0.7239,0.736,0.7374,0.7384,0.7289,0.7291,0.7292,0.7359,0,0.711,0.7161,0.7152,0.7201,0.7224,0.7204,0.7229,0.7239,0.7239,0.7259,0.726,0.7282,0.7258,0.7265,0.7287,0.7288,0.7323,0.7283,0.7314,0.7315,0.7313,0.7395,0.741,0.7473,0.7367,0.7369,0.737,0,0.7189,0.7204,0.7256,0.7264,0.7273,0.7296,0.7314,0.7333,0.7344,0.7343,0.7356,0.7344,0.7375,0.7344,0.7387,0.736,0.7372,0.7375,0.7377,0.738,0.7346,0.7402,0.7492,0.7502,0.7383,0.7382,0.7381,0,0.7247,0.728,0.7316,0.7323,0.7332,0.735,0.7355,0.7364,0.7377,0.7393,0.7402,0.7421,0.7432,0.7448,0.7443,0.7421,0.7487,0.7456,0.7488,0.7489,0.7504,0.7503,0.7598,0.751,0.751,0.751,0.751,0,0.7317,0.735,0.7342,0.7364,0.7401,0.739,0.7427,0.743,0.7439,0.7462,0.7445,0.7467,0.7459,0.7481,0.7477,0.7514,0.7518,0.7519,0.7518,0.7521,0.7521,0.7529,0.7525,0.7512,0.7512,0.7511,0.7511,0,0.7388,0.7384,0.7422,0.7428,0.743,0.7457,0.7463,0.7484,0.7483,0.7513,0.7519,0.7518,0.7543,0.7539,0.7567,0.7565,0.7611,0.7604,0.7607,0.7606,0.7639,0.7636,0.7744,0.7758,0.766,0.7661,0.7661,0,0.7434,0.7458,0.7468,0.7482,0.7488,0.7511,0.7524,0.7515,0.753,0.7545,0.7565,0.7589,0.7607,0.7648,0.7651,0.7672,0.7666,0.7702,0.7669,0.7672,0.7668,0.7667,0.767,0.7709,0.771,0.7711,0.7712,0,0.7515,0.7512,0.7531,0.7551,0.7567,0.7582,0.7595,0.7608,0.7601,0.7618,0.7643,0.7658,0.7686,0.7711,0.7731,0.7737,0.7724,0.7722,0.7731,0.7735,0.7736,0.7737,0.7626,0.772,0.7719,0.7718,0.7718,0.7718,0.7576,0.7597,0.7607,0.763,0.7639,0.7652,0.7673,0.7675,0.7695,0.7718,0.7712,0.7741,0.7753,0.7779,0.7787,0.7811,0.7797,0.781,0.7813,0.7817,0.7821,0.7732,0.7814,0.7814,0.7814,0.7814,0.7813,0,0.7657,0.7663,0.7684,0.7703,0.7721,0.7707,0.7721,0.7737,0.7763,0.7775,0.7794,0.7824,0.7847,0.7852,0.7874,0.7892,0.7887,0.7899,0.7898,0.79,0.7831,0.7822,0.7903,0.7903,0.7903,0.7903,0.7903,0.7903,0.7702,0.7738,0.7737,0.7778,0.7784,0.7812,0.7821,0.7834,0.7843,0.7877,0.7897,0.7899,0.7909,0.7932,0.7954,0.7955,0.7964,0.7979,0.7977,0.7913,0.7904,0.7896,0.7887,0.7981,0.7981,0.8044,0.8045,0.8045]},{"header":{"parameterUnit":"m.s-1","parameterCategory":1,"la1":30.2991,"la2":30.254,"lo1":-89.0895,"lo2":-89.0444,"dy":0.0017,"dx":0.0017,"nx":28,"ny":28,"refTime":"2024-07-01T09:00:00:Z","depth":0,"parameterNumber":3,"parameterNumberName":"V-component_of_WINDS"},"data":[0,0,0,0,0,0,0,0,0,0,0,0,0,0,0,0,0,0,0,0,0,0,0,0,0,0,0,0,0,0,0,0,0,0,0,0,0,0,0,0,0,0,0,0,0,0,0,0,0,0,0,0,0,0,0,0,0,0,-3.4609,-3.4609,0,-3.4644,-3.4644,-3.4644,-3.4669,-3.467,-3.467,-3.467,-3.4701,-3.4702,-3.4702,0,0,0,0,0,0,0,0,0,0,0,0,0,-3.4561,-3.4562,-3.4609,-3.4609,-3.4609,-3.4644,-3.4644,-3.4644,-3.4669,-3.467,-3.467,-3.467,-3.4701,-3.4701,-3.4702,0,0,0,0,0,0,0,0,0,0,0,0,0,-3.4587,-3.4562,-3.4608,-3.4626,-3.4628,-3.4643,-3.4644,-3.4645,-3.4669,-3.467,-3.467,-3.467,-3.47,-3.4701,-3.4702,-3.4701,0,0,-3.4705,-3.4706,0,0,0,0,0,0,0,0,-3.4586,-3.4589,-3.4623,-3.4625,-3.4627,-3.4653,-3.4639,-3.4663,-3.4669,-3.4653,-3.467,-3.467,-3.4684,-3.4687,-3.4692,-3.4703,-3.4704,-3.4705,-3.4706,-3.4706,-3.4706,0,0,0,0,0,0,0,-3.4584,-3.4588,-3.4622,-3.4623,-3.4626,-3.4632,-3.4636,-3.4644,-3.4666,-3.4655,-3.4657,-3.4661,-3.4685,-3.4691,-3.4693,-3.4705,-3.4705,-3.4706,-3.4707,-3.4707,-3.472,-3.472,0,0,0,0,0,0,-3.458,-3.4586,-3.4621,-3.4623,-3.4607,-3.4632,-3.4637,-3.4644,-3.4666,-3.467,-3.4661,-3.4662,-3.4689,-3.4692,-3.4694,-3.4697,-3.4706,-3.4707,-3.4708,-3.472,-3.472,-3.472,0,0,0,0,0,0,-3.4579,-3.4583,-3.462,-3.4605,-3.4611,-3.4633,-3.4641,-3.4644,-3.465,-3.4671,-3.4675,-3.4662,-3.469,-3.4693,-3.4701,-3.4698,-3.4707,-3.4708,-3.4721,-3.472,-3.472,-3.4701,0,0,0,0,0,0,-3.4577,-3.4582,-3.4582,-3.4605,-3.4611,-3.4626,-3.464,-3.4645,-3.4653,-3.4655,-3.4674,-3.4677,-3.469,-3.4699,-3.4702,-3.47,-3.4709,-3.4721,-3.4721,-3.472,-3.4702,-3.47,-3.4699,0,0,0,0,0,-3.4576,-3.4574,-3.4582,-3.4586,-3.4612,-3.4626,-3.4629,-3.4646,-3.4652,-3.4653,-3.4666,-3.4676,-3.4699,-3.47,-3.4703,-3.4701,-3.4721,-3.4721,-3.472,-3.4703,-3.4701,-3.4699,0,0,0,0,0,0,-3.4547,-3.4577,-3.4587,-3.4592,-3.4607,-3.463,-3.4631,-3.4642,-3.4654,-3.4655,-3.4674,-3.4678,-3.4684,-3.4693,-3.4694,-3.4703,-3.4711,-3.4711,-3.4697,-3.4695,-3.4693,-3.4691,-3.471,0,0,0,0,0,-3.4542,-3.4552,-3.4577,-3.458,-3.4587,-3.4608,-3.4614,-3.4626,-3.4641,-3.4647,-3.4661,-3.4674,-3.4684,-3.469,-3.47,-3.4704,-3.4709,-3.4705,-3.4703,-3.4702,-3.4701,-3.4707,-3.4705,-3.4718,-3.4718,-3.4718,0,0,-3.453,-3.4548,-3.4553,-3.4575,-3.4587,-3.4597,-3.4612,-3.4621,-3.4628,-3.4647,-3.4657,-3.4668,-3.4684,-3.469,-3.4694,-3.4698,-3.4699,-3.4701,-3.47,-3.47,-3.4706,-3.4705,-3.4704,-3.4718,-3.4718,-3.4718,0,0,-3.4515,-3.4529,-3.4534,-3.4548,-3.4568,-3.4582,-3.4584,-3.4606,-3.4615,-3.4625,-3.4641,-3.465,-3.4666,-3.4678,-3.4686,-3.468,-3.469,-3.4682,-3.4673,-3.4678,-3.4677,-3.4676,-3.4675,-3.4675,-3.4682,-3.4682,-3.4682,0,-3.4497,-3.4514,-3.4535,-3.4544,-3.4554,-3.4575,-3.4581,-3.4592,-3.4613,-3.462,-3.4625,-3.4649,-3.4661,-3.4672,-3.4671,-3.4676,-3.4679,-3.468,-3.4676,-3.4675,-3.4675,-3.4674,-3.4674,-3.4681,-3.4681,-3.4681,-3.4681,0,-3.4493,-3.4504,-3.4505,-3.4529,-3.4539,-3.4546,-3.4568,-3.4576,-3.4588,-3.4602,-3.4614,-3.463,-3.4645,-3.4649,-3.4659,-3.4662,-3.4664,-3.4672,-3.468,-3.4672,-3.4672,-3.4672,-3.468,-3.468,-3.468,-3.468,0,0,-3.4457,-3.4496,-3.4496,-3.4508,-3.4534,-3.4543,-3.4552,-3.4569,-3.4576,-3.4591,-3.46,-3.4615,-3.4624,-3.4634,-3.4646,-3.465,-3.4647,-3.4658,-3.4659,-3.4657,-3.4653,-3.4647,-3.4647,-3.4655,-3.4655,-3.4655,-3.4652,0,-3.4446,-3.4465,-3.4486,-3.4497,-3.4509,-3.4531,-3.454,-3.4556,-3.4571,-3.4582,-3.4597,-3.4609,-3.4619,-3.4625,-3.4631,-3.4646,-3.4647,-3.4647,-3.4663,-3.4663,-3.4658,-3.4646,-3.464,-3.4636,-3.4652,-3.4652,-3.4652,0,-3.4435,-3.4452,-3.4466,-3.4494,-3.45,-3.4507,-3.4526,-3.4537,-3.4557,-3.4567,-3.458,-3.4595,-3.4606,-3.4614,-3.463,-3.463,-3.4638,-3.4647,-3.4647,-3.4649,-3.4657,-3.4649,-3.4636,-3.4635,-3.4652,-3.4652,-3.4652,0,-3.441,-3.4436,-3.4449,-3.4458,-3.4491,-3.4496,-3.4509,-3.453,-3.454,-3.4557,-3.4564,-3.4581,-3.459,-3.4603,-3.4623,-3.4626,-3.4637,-3.4646,-3.4646,-3.4646,-3.4647,-3.4647,-3.4636,-3.4652,-3.4652,-3.4652,-3.4652,0,-3.4395,-3.4403,-3.4438,-3.4446,-3.4456,-3.448,-3.4489,-3.4504,-3.4524,-3.4535,-3.4554,-3.4564,-3.4588,-3.4601,-3.4616,-3.4629,-3.4632,-3.4641,-3.4645,-3.4639,-3.4638,-3.4645,-3.4645,-3.4651,-3.4651,-3.4651,-3.4652,0,-3.4368,-3.4392,-3.4407,-3.4439,-3.4447,-3.4453,-3.4479,-3.4488,-3.4505,-3.4519,-3.4523,-3.4549,-3.4566,-3.4587,-3.4609,-3.4619,-3.463,-3.4636,-3.4624,-3.4626,-3.4626,-3.4626,-3.4619,-3.462,-3.4634,-3.4634,-3.4634,0,-3.4357,-3.4364,-3.4398,-3.4408,-3.4422,-3.4437,-3.4449,-3.4474,-3.4485,-3.4511,-3.4517,-3.4535,-3.4552,-3.4577,-3.4597,-3.4615,-3.4622,-3.4618,-3.4624,-3.462,-3.4623,-3.4623,-3.4625,-3.4616,-3.4616,-3.4616,-3.4616,0,-3.4336,-3.4349,-3.4366,-3.4389,-3.4403,-3.4421,-3.444,-3.4447,-3.4476,-3.4488,-3.4507,-3.452,-3.4545,-3.4563,-3.4585,-3.4598,-3.4612,-3.4614,-3.4615,-3.461,-3.4603,-3.4608,-3.462,-3.4614,-3.4614,-3.4614,-3.4614,-3.4614,-3.4317,-3.4326,-3.4352,-3.4371,-3.4389,-3.4408,-3.4418,-3.4438,-3.4455,-3.4479,-3.4493,-3.4511,-3.4534,-3.4565,-3.4578,-3.4593,-3.4598,-3.4599,-3.4599,-3.4599,-3.4599,-3.4601,-3.4597,-3.4597,-3.4597,-3.4597,-3.4597,0,-3.4298,-3.4317,-3.4335,-3.4363,-3.4379,-3.4394,-3.4416,-3.4428,-3.4445,-3.4466,-3.4483,-3.4506,-3.4525,-3.4549,-3.457,-3.4577,-3.4584,-3.4582,-3.4582,-3.4585,-3.4592,-3.459,-3.4576,-3.4576,-3.4576,-3.4576,-3.4576,-3.4576,-3.429,-3.4307,-3.4323,-3.4349,-3.4368,-3.4388,-3.44,-3.4418,-3.4435,-3.4461,-3.4478,-3.4494,-3.4516,-3.454,-3.4558,-3.4565,-3.4572,-3.4568,-3.4576,-3.4582,-3.4584,-3.4586,-3.4584,-3.4569,-3.4569,-3.4568,-3.4568,-3.4568]}]]